Location: Adrasan
(36.3319°N, 30.4314°E)
Time: 09:47:40
(UTC+00:00)

Meteor 1-10 Rocket - Pass Details

Date: 22 May 2024
Orbit: 834 x 910 km, 81.3° (Epoch: 16 June)

Event Time Altitude Azimuth Distance (km) Brightness Sun altitude
Exits shadow 20:01:48 29° 231° (SW) 1,551 5.4 -27.1°
Maximum altitude 20:04:13 44° 283° (WNW) 1,186 5.1 -27.3°
Drops below altitude 10° 20:09:38 10° 355° (N) 2,499 7.5 -27.9°
Sets 20:12:10 0° 2° (N) 3,428 8.3 -28.1°
